Latest Weather Observations for Hobart Airport

IDT60801

Issued at 10:05 pm EDT Saturday 25 October 2014 (issued every 30 minutes, with the page automatically refreshed every 10 minutes)

About weather observations | Map of weather stations | Latest weather observations for TAS | Other Formats
Station Details ID: 094008 Name: HOBART AIRPORT Lat: -42.83 Lon: 147.50 Height: 4.0 m
Data from the previous 72 hours. | See also: Recent months at Hobart Airport
Date/Time
EDT
Temp
°C
App
Temp
°C
Dew
Point
Rel
Hum
%
Delta-T
°C
Wind Press
QNH
hPa
Press
MSL
hPa
Rain
since 9 am
mm
Dir
 
Spd
km/h
Gust
km/h
Spd
kts
Gust
kts
25/10:00pm 11.4 8.8 6.3 71 2.4 S 9 11 5 6 1018.5 1018.5 0.0
25/09:30pm 11.3 8.8 6.4 72 2.3 SE 9 13 5 7 1018.3 1018.3 0.0
25/09:00pm 11.5 8.5 5.9 68 2.6 ESE 11 15 6 8 1018.4 1018.4 0.0
25/08:30pm 11.8 8.3 5.5 65 2.9 SSE 13 20 7 11 1018.4 1018.4 0.0
25/08:00pm 12.0 6.7 5.0 62 3.2 SSE 22 28 12 15 1017.8 1017.8 0.0
25/07:30pm 12.1 6.1 5.1 62 3.2 S 26 32 14 17 1017.8 1017.8 0.0
25/07:00pm 12.2 5.9 5.5 63 3.1 S 28 37 15 20 1017.4 1017.4 0.0
25/06:30pm 12.4 6.1 5.8 64 3.1 S 28 35 15 19 1017.1 1017.1 0.0
25/06:00pm 12.8 6.6 6.0 63 3.2 S 28 35 15 19 1017.0 1017.0 0.0
25/05:30pm 13.0 6.5 6.3 64 3.2 S 30 37 16 20 1016.6 1016.6 0.0
25/05:00pm 13.5 6.7 6.9 64 3.2 SSE 32 41 17 22 1016.5 1016.5 0.0
25/04:30pm 14.2 7.4 7.0 62 3.5 SSE 32 39 17 21 1016.3 1016.3 0.0
25/04:00pm 14.9 8.2 7.2 60 3.8 SSE 32 39 17 21 1016.4 1016.4 0.0
25/03:30pm 14.3 7.1 7.6 64 3.3 S 35 44 19 24 1016.3 1016.3 0.0
25/03:00pm 15.3 8.7 8.6 64 3.4 SSE 33 41 18 22 1016.3 1016.3 0.0
25/02:30pm 14.8 7.9 8.7 67 3.1 S 35 44 19 24 1016.3 1016.3 0.0
25/02:00pm 15.3 8.1 9.3 67 3.1 SSE 37 48 20 26 1016.4 1016.4 0.0
25/01:30pm 15.0 7.6 9.8 71 2.7 SSE 39 50 21 27 1016.2 1016.2 0.0
25/01:00pm 15.5 9.3 9.5 67 3.1 SSE 32 37 17 20 1016.0 1016.0 0.0
25/12:30pm 15.5 10.8 9.3 66 3.2 SE 24 35 13 19 1015.8 1015.8 0.0
25/12:00pm 16.6 11.7 9.9 64 3.5 SE 26 33 14 18 1016.1 1016.1 0.0
25/11:30am 16.5 10.9 8.7 60 4.0 SSE 28 35 15 19 1015.9 1015.9 0.0
25/11:00am 15.1 9.4 8.4 64 3.4 SSE 28 37 15 20 1015.7 1015.7 0.0
25/10:30am 16.2 10.2 8.6 60 3.9 SSE 30 33 16 18 1015.7 1015.7 0.0
25/10:00am 15.9 10.4 9.1 64 3.5 SSE 28 33 15 18 1015.4 1015.4 0.0
25/09:30am 16.1 12.0 10.0 67 3.2 SE 22 32 12 17 1015.3 1015.3 0.0
25/09:00am 14.9 12.0 9.5 70 2.8 SE 15 19 8 10 1015.4 1015.4 0.0
25/08:30am 14.4 11.1 9.5 72 2.5 S 17 20 9 11 1015.1 1015.1 0.0
25/08:00am 14.5 12.1 9.9 74 2.4 SSW 13 24 7 13 1014.6 1014.6 0.0
25/07:30am 14.1 11.0 10.3 78 2.0 S 17 28 9 15 1014.1 1014.1 0.0
25/07:00am 14.0 13.0 11.0 82 1.6 S 7 9 4 5 1013.5 1013.5 0.0
25/06:30am 13.8 12.5 11.4 85 1.3 SSW 9 13 5 7 1012.9 1012.9 0.0
25/06:00am 13.4 12.2 11.5 88 1.0 SE 9 13 5 7 1012.5 1012.5 0.0
25/05:30am 13.5 12.9 11.6 88 1.0 SW 6 7 3 4 1012.0 1012.0 0.0
25/05:00am 14.1 11.7 11.5 84 1.4 S 15 19 8 10 1011.4 1011.4 0.0
25/04:30am 13.7 11.8 11.8 88 1.0 SSE 13 15 7 8 1010.9 1010.9 0.0
25/04:00am 13.3 11.7 11.6 89 0.9 SSE 11 15 6 8 1010.5 1010.5 0.0
25/03:30am 12.5 12.1 11.2 92 0.7 NNE 4 7 2 4 1010.0 1010.0 0.0
25/03:00am 13.0 11.9 11.9 93 0.6 SSE 9 13 5 7 1009.9 1009.9 0.0
25/02:30am 11.3 11.3 9.9 91 0.7 CALM 0 4 0 2 1009.5 1009.5 0.0
25/02:00am 12.2 11.4 10.9 92 0.7 NNE 6 11 3 6 1009.1 1009.1 0.0
25/01:30am 14.1 13.4 11.9 86 1.2 W 7 9 4 5 1009.0 1009.0 0.0
25/01:00am 14.8 13.3 12.0 83 1.5 SSW 11 15 6 8 1009.3 1009.3 0.0
25/12:30am 14.9 14.9 12.5 85 1.3 SSE 4 11 2 6 1009.1 1009.1 0.0
25/12:00am 15.4 14.8 12.3 82 1.7 SSE 7 11 4 6 1008.8 1008.8 0.0
 
Date/Time
EDT
Temp
°C
App
Temp
°C
Dew
Point
Rel
Hum
%
Delta-T
°C
Wind Press
QNH
hPa
Press
MSL
hPa
Rain
since 9 am
mm
Dir
 
Spd
km/h
Gust
km/h
Spd
kts
Gust
kts
24/11:30pm 16.0 14.9 12.0 77 2.2 NW 9 11 5 6 1008.6 1008.6 0.0
24/11:00pm 16.0 14.3 12.4 79 2.0 N 13 15 7 8 1008.3 1008.3 0.0
24/10:30pm 16.7 16.1 12.2 75 2.5 NNW 7 13 4 7 1008.3 1008.3 0.0
24/10:00pm 16.6 15.6 12.4 76 2.3 N 9 13 5 7 1008.3 1008.3 0.0
24/09:30pm 16.3 14.7 12.9 80 1.9 NE 13 17 7 9 1008.4 1008.4 0.0
24/09:00pm 16.6 15.1 13.0 79 2.0 NNE 13 19 7 10 1008.9 1008.9 0.0
24/08:30pm 16.8 15.2 12.9 78 2.2 NNE 13 15 7 8 1008.4 1008.4 0.0
24/08:00pm 16.9 14.5 12.8 77 2.3 NNE 17 20 9 11 1008.1 1008.1 0.0
24/07:30pm 16.6 14.7 13.0 79 2.0 NE 15 22 8 12 1008.0 1008.0 0.0
24/07:00pm 16.7 14.1 13.1 79 2.0 NE 19 26 10 14 1008.2 1008.2 0.0
24/06:30pm 16.8 14.2 13.2 79 2.0 NE 19 26 10 14 1008.9 1008.9 0.0
24/06:00pm 17.0 12.7 13.3 79 2.1 NE 28 33 15 18 1009.3 1009.3 0.0
24/05:30pm 16.9 13.3 13.2 79 2.1 NE 24 33 13 18 1009.7 1009.7 0.0
24/05:00pm 17.3 13.2 12.8 75 2.5 NE 26 37 14 20 1009.7 1009.7 0.0
24/04:30pm 17.6 14.2 12.4 71 2.9 NE 22 28 12 15 1010.0 1010.0 0.0
24/04:00pm 17.8 14.0 12.4 70 3.0 NE 24 30 13 16 1010.6 1010.6 0.0
24/03:30pm 17.0 13.5 12.1 73 2.7 NE 22 30 12 16 1011.3 1011.3 0.0
24/03:00pm 16.8 13.6 11.9 73 2.7 NE 20 28 11 15 1011.9 1011.9 0.0
24/02:30pm 17.0 13.7 11.5 70 3.0 NNE 20 26 11 14 1012.6 1012.6 0.0
24/02:00pm 17.3 13.6 11.4 68 3.2 NE 22 30 12 16 1013.2 1013.2 0.0
24/01:30pm 16.8 14.0 11.4 70 2.9 ENE 17 26 9 14 1013.8 1013.8 0.0
24/01:00pm 16.5 13.0 10.9 69 3.0 NE 20 28 11 15 1014.6 1014.6 0.0
24/12:30pm 16.4 12.3 10.1 66 3.3 NE 22 33 12 18 1015.2 1015.2 0.0
24/12:00pm 16.7 12.7 10.3 66 3.4 NE 22 30 12 16 1015.8 1015.8 0.0
24/11:30am 15.8 12.1 9.6 66 3.2 NNE 19 26 10 14 1016.6 1016.6 0.0
24/11:00am 15.4 11.3 8.7 64 3.4 NNE 20 33 11 18 1017.0 1017.0 0.0
24/10:30am 14.9 10.9 8.3 64 3.3 NNE 19 30 10 16 1017.4 1017.4 0.0
24/10:00am 12.7 9.9 6.9 68 2.8 NNW 11 17 6 9 1018.1 1018.1 0.0
24/09:30am 11.5 7.7 5.9 68 2.6 NW 15 19 8 10 1018.5 1018.5 0.0
24/09:00am 10.0 6.5 5.4 73 2.1 NW 13 15 7 8 1019.3 1019.3 0.0
24/08:30am 9.4 4.8 5.7 78 1.7 NW 19 24 10 13 1020.0 1020.0 0.0
24/08:00am 9.1 5.6 5.6 79 1.6 NW 13 17 7 9 1020.3 1020.3 0.0
24/07:30am 7.3 2.9 4.8 84 1.1 NW 17 20 9 11 1020.6 1020.6 0.0
24/07:00am 6.3 1.8 4.4 88 0.8 NW 17 20 9 11 1020.7 1020.7 0.0
24/06:30am 5.5 2.4 3.6 87 0.8 NW 9 13 5 7 1020.9 1020.9 0.0
24/06:00am 5.6 1.4 3.9 89 0.7 NW 15 17 8 9 1021.2 1021.2 0.0
24/05:30am 5.8 1.7 4.1 89 0.7 NW 15 19 8 10 1021.4 1021.4 0.0
24/05:00am 5.7 1.5 4.0 89 0.7 NW 15 17 8 9 1021.5 1021.5 0.0
24/04:30am 5.7 2.3 3.8 87 0.8 NW 11 17 6 9 1021.9 1021.9 0.0
24/04:00am 5.6 3.0 4.2 91 0.6 NW 7 11 4 6 1022.1 1022.1 0.0
24/03:30am 6.5 3.6 4.4 86 0.9 NNW 9 13 5 7 1022.9 1022.9 0.0
24/03:00am 6.9 3.3 4.8 86 0.9 NW 13 15 7 8 1023.3 1023.3 0.0
24/02:30am 6.1 2.6 3.7 84 1.0 WNW 11 13 6 7 1023.5 1023.5 0.0
24/02:00am 7.3 4.0 4.8 84 1.1 N 11 13 6 7 1023.9 1023.9 0.0
24/01:30am 8.0 4.8 5.3 83 1.2 NNW 11 13 6 7 1024.3 1024.3 0.0
24/01:00am 8.0 4.9 3.5 73 1.9 N 9 11 5 6 1024.8 1024.8 0.0
24/12:30am 7.9 4.4 3.7 75 1.8 N 11 13 6 7 1024.8 1024.8 0.0
24/12:00am 9.5 6.0 3.5 66 2.6 N 11 13 6 7 1025.2 1025.2 0.0
 
Date/Time
EDT
Temp
°C
App
Temp
°C
Dew
Point
Rel
Hum
%
Delta-T
°C
Wind Press
QNH
hPa
Press
MSL
hPa
Rain
since 9 am
mm
Dir
 
Spd
km/h
Gust
km/h
Spd
kts
Gust
kts
23/11:30pm 9.3 5.9 3.8 68 2.4 N 11 15 6 8 1025.4 1025.4 0.0
23/11:00pm 10.1 6.3 3.7 64 2.8 N 13 17 7 9 1025.6 1025.6 0.0
23/10:30pm 10.1 5.0 4.2 67 2.6 NE 20 28 11 15 1025.2 1025.2 0.0
23/10:00pm 10.7 5.6 4.2 64 2.9 NE 20 30 11 16 1025.5 1025.5 0.0
23/09:30pm 10.7 5.7 4.4 65 2.8 NE 20 28 11 15 1025.8 1025.8 0.0
23/09:00pm 10.7 6.2 4.4 65 2.8 NE 17 26 9 14 1026.0 1026.0 0.0
23/08:30pm 11.1 6.0 4.1 62 3.1 NE 20 28 11 15 1026.0 1026.0 0.0
23/08:00pm 11.1 7.0 4.1 62 3.1 E 15 20 8 11 1025.8 1025.8 0.0
23/07:30pm 11.6 7.4 3.9 59 3.4 E 15 24 8 13 1025.7 1025.7 0.0
23/07:00pm 12.3 7.8 4.0 57 3.7 E 17 26 9 14 1025.3 1025.3 0.0
23/06:30pm 13.2 8.6 3.9 53 4.2 ESE 17 24 9 13 1025.1 1025.1 0.0
23/06:00pm 13.5 9.3 3.7 51 4.4 ESE 15 26 8 14 1025.0 1025.0 0.0
23/05:30pm 14.2 9.6 3.5 48 4.8 ESE 17 28 9 15 1024.9 1024.9 0.0
23/05:00pm 14.8 9.8 3.5 46 5.1 SE 19 28 10 15 1024.8 1024.8 0.0
23/04:30pm 14.8 9.4 4.7 51 4.7 SSE 22 30 12 16 1024.8 1024.8 0.0
23/04:00pm 13.8 7.6 4.4 53 4.3 SSE 26 32 14 17 1024.9 1024.9 0.0
23/03:30pm 14.5 9.1 4.3 50 4.7 SSE 22 30 12 16 1024.9 1024.9 0.0
23/03:00pm 14.6 9.3 3.2 46 5.1 SSE 20 28 11 15 1025.0 1025.0 0.0
23/02:30pm 14.5 9.3 3.4 47 5.0 SSE 20 26 11 14 1025.3 1025.3 0.0
23/02:00pm 14.8 9.5 2.9 44 5.3 SSE 20 32 11 17 1025.4 1025.4 0.0
23/01:30pm 14.9 9.3 3.7 47 5.1 S 22 30 12 16 1025.4 1025.4 0.0
23/01:00pm 14.9 9.2 2.8 44 5.4 S 22 28 12 15 1025.5 1025.5 0.0
23/12:30pm 14.0 8.8 2.7 46 5.0 S 19 28 10 15 1025.8 1025.8 0.0
23/12:00pm 13.8 9.1 3.0 48 4.8 S 17 24 9 13 1026.2 1026.2 0.0
23/11:30am 13.8 9.0 2.4 46 5.0 S 17 22 9 12 1026.4 1026.4 0.0
23/11:00am 13.2 8.5 3.0 50 4.5 S 17 26 9 14 1026.7 1026.7 0.0
23/10:30am 12.8 7.7 3.0 51 4.3 S 19 28 10 15 1026.6 1026.6 0.0
23/10:00am 12.6 8.2 2.7 51 4.3 SSE 15 24 8 13 1026.6 1026.6 0.0
23/09:30am 12.4 7.2 2.5 51 4.3 SSE 19 26 10 14 1026.4 1026.4 0.0
23/09:00am 11.8 5.9 1.9 50 4.2 S 22 30 12 16 1026.3 1026.3 0.0
23/08:30am 12.0 6.0 3.4 55 3.8 SSE 24 35 13 19 1026.0 1026.0 0.0
23/08:00am 11.7 7.0 3.0 55 3.8 S 17 26 9 14 1025.6 1025.6 0.0
23/07:30am 11.4 6.0 2.6 54 3.8 SSW 20 28 11 15 1025.2 1025.2 0.0
23/07:00am 11.3 5.2 3.0 56 3.6 S 24 33 13 18 1024.7 1024.7 0.0
23/06:30am 11.1 5.0 2.7 56 3.6 S 24 35 13 19 1024.1 1024.1 0.0
23/06:00am 11.2 5.2 3.2 58 3.5 S 24 32 13 17 1023.7 1023.7 0.0
23/05:30am 11.3 6.1 3.3 58 3.5 S 20 33 11 18 1023.2 1023.2 0.0
23/05:00am 11.1 4.7 3.3 58 3.4 S 26 33 14 18 1022.8 1022.8 0.0
23/04:30am 11.5 5.5 3.6 58 3.5 S 24 30 13 16 1022.5 1022.5 0.0
23/04:00am 11.7 5.1 4.4 61 3.3 S 28 37 15 20 1022.1 1022.1 0.0
23/03:30am 11.6 4.4 4.8 63 3.1 S 32 43 17 23 1022.2 1022.2 0.0
23/03:00am 11.8 5.5 5.5 65 2.9 S 28 39 15 21 1022.0 1022.0 0.0
23/02:30am 11.9 5.9 7.1 72 2.3 S 28 37 15 20 1022.0 1022.0 0.0
23/02:00am 12.3 7.1 8.9 80 1.7 S 26 39 14 21 1021.8 1021.8 0.0
23/01:30am 12.8 7.5 9.7 81 1.6 S 28 33 15 18 1021.6 1021.6 0.0
23/01:00am 13.1 8.5 9.6 79 1.8 S 24 35 13 19 1021.5 1021.5 0.0
23/12:43am 13.2 7.5 9.9 80 1.7 S 30 48 16 26 1021.2 1021.2 0.0
23/12:30am 13.5 8.1 9.6 77 2.0 S 28 41 15 22 1020.5 1020.5 0.0
23/12:00am 14.0 7.7 9.1 72 2.5 S 32 41 17 22 1020.3 1020.3 0.0
 
Date/Time
EDT
Temp
°C
App
Temp
°C
Dew
Point
Rel
Hum
%
Delta-T
°C
Wind Press
QNH
hPa
Press
MSL
hPa
Rain
since 9 am
mm
Dir
 
Spd
km/h
Gust
km/h
Spd
kts
Gust
kts
22/11:30pm 14.1 8.7 9.4 73 2.4 S 28 46 15 25 1019.9 1019.9 0.0
22/11:00pm 14.3 9.3 9.4 72 2.5 S 26 44 14 24 1019.7 1019.7 0.0
22/10:30pm 14.4 11.3 10.2 76 2.2 SSE 17 26 9 14 1019.3 1019.3 0.0

Other Formats:

Comma delimited format used in spreadsheet applications
http://www.bom.gov.au/fwo/IDT60801/IDT60801.94975.axf

JavaScript Object Notation format (JSON) in row-major order
http://www.bom.gov.au/fwo/IDT60801/IDT60801.94975.json